Location: York
(31.8935°S, 116.7682°E)
Time: 00:18:33
(UTC+08:00)

Envisat - Pass Details

Date: 08 December 2021
Orbit: 764 x 766 km, 98.2° (Epoch: 28 January)

Event Time Altitude Azimuth Distance (km) Brightness Sun altitude
Rises 03:06:10 0° 62° (ENE) 3,228 6.4 -20.3°
Reaches altitude 10° 03:09:46 10° 89° (E) 2,312 6.1 -19.7°
Maximum altitude 03:11:59 13° 115° (ESE) 2,121 6.3 -19.4°
Drops below altitude 10° 03:14:12 10° 141° (SE) 2,324 6.7 -19.1°
Sets 03:17:50 0° 167° (SSE) 3,260 7.2 -18.5°
